Regional Weather Roundup
Issued by NWS

Home | Current Version | Previous Version | Text Only | Print | Product List | Glossary On
Versions: 1 2 3 4 5 6 7 8 9 10 11 12 13 14 15 16 17 18 19 20 21 22 23 24 25 26 27 28 29 30 31 32 33 34 35 36 37 38 39 40 41 42 43 44 45 46 47 48 49 50
000
ASHW40 PHFO 262343
RWRHI

WEATHER ROUNDUP FOR HAWAII
NATIONAL WEATHER SERVICE HONOLULU HI
100 PM HST SAT MAY 26 2018

THIS IS AN AUTOMATED REPORT THAT HAS NOT BEEN QUALITY CONTROLLED.

NOTE..."FAIR" INDICATES FEW OR NO CLOUDS BELOW 12,000 FEET WITH NO
SIGNIFICANT WEATHER AND/OR OBSTRUCTIONS TO VISIBILITY.

* - THESE SITES REPORT LIMITED FIELDS
# - BUOY DATA PROVIDED BY PACIFIC ISLANDS OCEAN OBSERVING SYSTEM.

HIZ001>004-270000-
KAUAI-NIIHAU-

CITY           SKY/WX    TMP DP  RH WIND       PRES   REMARKS
LIHUE APT      CLOUDY    75  73  93 NE18      30.11S
PORT ALLEN*      N/A     81 N/A N/A E18G25      N/A
POIPU*           N/A     81 N/A N/A NE9G20      N/A
PRINCEVILLE*     N/A     77 N/A N/A E12G22      N/A
KOKOLE POINT*  NOT AVBL
MOLOAA DAIRY*    N/A     75  70  83 E7G16       N/A
WAIMEA HTS*    NOT AVBL
PUU OPAE*        N/A     73  63  68 S6          N/A
PUU LUA*       NOT AVBL
MAKAHA RIDGE*    N/A     75  64  69 MISG        N/A
$$

HIZ005>011-270000-
OAHU-

CITY           SKY/WX    TMP DP  RH WIND       PRES   REMARKS
HONOLULU       CLOUDY    81  68  64 NE17G25   30.05F
KALAELOA       CLOUDY    85  68  56 E9G20     30.05F
KANEOHE MCB    CLOUDY    79  70  74 E16G24    30.04F
WHEELER FIELD  FAIR      77  67  69 NE14      30.06F
BELLOWS*         N/A    N/A N/A N/A NE15        N/A
KAHUKU*          N/A    N/A N/A N/A NE8G22      N/A
WHEELER*         N/A    N/A N/A N/A NE8G16      N/A
WAIANAE HARBOR   N/A    N/A N/A N/A NE9G17      N/A
DILLINGHAM*    NOT AVBL
KAHUKU TRN*      N/A     73  66  78 W9          N/A
KAWAILOA*        N/A     70  66  88 E12         N/A
KII*             N/A     79  68  69 NE12        N/A
MAKUA RANGE*     N/A     72  57  60 NE14G21     N/A
OAHU FOREST NW NOT AVBL
SCHOFIELD BRK*   N/A     66  57  72 E12         N/A
SCHOFIELD S*   NOT AVBL
WAIANAE VLY*   NOT AVBL
KUAOKALA*      NOT AVBL
HONOULIUULI*   NOT AVBL
MOKUOLOE IS*   NOT AVBL
PALEHUA*       NOT AVBL
WAIAWA PHB*    NOT AVBL
$$

HIZ012>013-270000-
MOLOKAI-

CITY           SKY/WX    TMP DP  RH WIND       PRES   REMARKS
MOLOKAI AIRPT  MOSUNNY   82  66  58 NE20G33   30.06F
KALAUPAPA      NOT AVBL
MAKAPULAPAI*     N/A     81  66  61 E16         N/A
MOLOKAI 1*     NOT AVBL
PUU ALII*      NOT AVBL
$$

HIZ016-270000-
KAHOOLAWE-

CITY           SKY/WX    TMP DP  RH WIND       PRES   REMARKS
KAHOOLAWE*     NOT AVBL
HAKIOAWA*      NOT AVBL
HONOKANAIA*    NOT AVBL
KANELOA*         N/A     72  66  83 E18G32    30.13F
KEALIALALO*    NOT AVBL
LUA MAKIKA*    NOT AVBL
$$

HIZ014>015-270000-
LANAI-

CITY           SKY/WX    TMP DP  RH WIND       PRES   REMARKS
LANAI CITY     PTSUNNY   76  65  68 NE25      30.09F
LANAI 1*       NOT AVBL
$$

HIZ017>028-270000-
MAUI-

CITY           SKY/WX    TMP DP  RH WIND       PRES   REMARKS
KAHULUI        PTSUNNY   79  68  69 NE16G28   30.05F
KAPALUA-W MAUI PTSUNNY   77  68  73 NE15G28   30.06
HANA AIRPORT   NOT AVBL
HANA*            N/A     79 N/A N/A E7G14       N/A
HALEAKALA SUMM   N/A     57  18  21 SE22        N/A
MAALAEA BAY*     N/A     82 N/A N/A N20G30      N/A
HALEAKALA*     NOT AVBL
KAUPO GAP*     NOT AVBL
KULA 1*          N/A     56  55  96 NW3         N/A
$$

HIZ023>026-270000-
BIG ISLAND OF HAWAII COAST AND LOWER SLOPES-

CITY           SKY/WX    TMP DP  RH WIND       PRES   REMARKS
KAILUA KONA    CLOUDY    82  68  61 S12       30.00F
HILO           CLOUDY    77  70  79 NE5       30.06F
HONOKAA*         N/A     68 N/A N/A VRB1        N/A
KAWAIHAE MWT*    N/A     81 N/A N/A W10         N/A
KAWAIHAE*        N/A     79 N/A N/A W6        30.00F
SOUTH POINT*     N/A     75 N/A N/A N18G29      N/A
UPOLU AIRPORT* NOT AVBL
KAMUELA*       PTCLDY    73  64  73 NE21      30.13F
HAKALAU*         N/A     59  59 100 SE3         N/A
KALOKO-HONOKO*   N/A     84  70  61 SW9       30.00F
PALI 2*          N/A     73  63  68 NE15        N/A
KEALAKOMO*       N/A     82  66  57 NE18        N/A
KAUPULEHU*     NOT AVBL
KAPAPALA*        N/A     73  66  79 E6G14       N/A
LOWER KAHUKU*  NOT AVBL
PUHE CS*       NOT AVBL
PUHO CS*       NOT AVBL
PTA KEAMUKU*     N/A     72  61  68 N7          N/A
WAIKOLOA*      NOT AVBL
$$

HIZ027>028-270000-
BIG ISLAND OF HAWAII INTERIOR AND SUMMMITS-

CITY           SKY/WX    TMP DP  RH WIND       PRES   REMARKS
BRADSHAW FIELD NOT AVBL
MK VISITOR CEN   N/A     57  16  19 SE12        N/A
MAUNA KEA*       N/A     46   7  19 NE32        N/A
MAUNA LOA*       N/A     55  36  47 MISG        N/A
MAUNA LOA 1*   NOT AVBL
PTA KIPUKA*      N/A     61  57  88 S6          N/A
PTA RANGE 17*    N/A     50  43  76 SE8G18      N/A
PTA WEST*        N/A     64  59  82 N9          N/A
NENE CABIN*    NOT AVBL
AHUMOA*        NOT AVBL
PTA PORTABLE*  NOT AVBL
PUU MALI*        N/A     55  54  94 NW5         N/A
$$

HIC003-270000-
NORTHWEST ISLANDS-

CITY           SKY/WX    TMP DP  RH WIND       PRES   REMARKS
MIDWAY ISLAND  SUNNY     79  66  65 NE7       30.25F
MIDWAY NOS*      N/A     75 N/A N/A MISG      30.23F
FRENCH FRIGATE NOT AVBL
$$

PHZ110>124-180-270000-
BUOY REPORTS

STATION/POSITION TIME  TEMP    WIND        PRES    WAVE   SWELL
                       AIR SEA DIR/SP/G            HT/PER HT/DIR
                 (UTC) (F)     (DEG/KT/KT) (MB)    (FT/S) (FT/D)
BUOY 51101       2250   72 74   70/ 12/ 14 1022.7F   7/ 8   7
BUOY 51100       NOT AVBL
BUOY 51002       2320   78 80   70/ 17/ 23 1015.4
BUOY 51003       2250   78 79   70/ 12/ 14 1016.4F   7/ 9   7/ 80
BUOY 51004       2320   77 79   70/ 16/ 19 1015.7
WAIMEA BAY#      NOT AVBL
MOKAPU POINT#    2304      77                N/A     7/ 8   2/ 90
LANAI#           NOT AVBL
BARBERS PT 2#    NOT AVBL
PAUWELA#         2230      76                N/A     7/ 8   2/ 20
HILO#            2327      78                N/A     7/ 8   2/ 30
KANEOHE BAY#     2324      77                N/A     6/ 8   2/ 30
KANEOHE BAY 2#   NOT AVBL
HANALEI#         NOT AVBL
KAHULUI HARBOR   2312   76 78   50/ 17/ 25 1017.6
HONOLULU HARBOR  2312   78 78   50/  9/ 13 1017.1
PEARL HARBOR#    2300      78                N/A     3/15   2/160
KILO NALU        NOT AVBL
HILO HARBOR      2312   75 79  330/  5/  6 1017.6
MOKUOLOE         2236   76 78   70/ 13/ 18 1018.6F
NAWILIWILI       2312   76 78   50/ 12/ 17 1018.7
WHOTS BUOY       NOT AVBL
BUOY 51028       NOT AVBL
$$

......................KEY........................................
  SKY/WX - SKY CONDITIONS/PRESENT WEATHER
  TMP    - TEMPERATURE IN FAHRENHEIT
  DWPT   - DEWPOINT IN FAHRENHEIT
  RH     - RELATIVE HUMIDITY IN PERCENT
  WIND   - DIRECTION AND SPEED /MPH FOR ISLANDS...KTS FOR BUOYS/
  PRES   - MEAN SEA LEVEL PRESSURE IN INCHES OF HG
  VSB    - VISIBILITY IN MILES
  HX     - HEAT INDEX
  WCI    - WIND CHILL INDEX
  VRB    - VARIABLE WIND DIRECTION
  N/A    - NOT AVAILABLE




USA.gov is the U.S. government's official web portal to all federal, state and local government web resources and services.